| time (UTC) | temp C | wind direction | speed KPH | gust KPH | rain 1hr cm | rain 24hr cm | rain mn cm | humidity % | barometer mb |
| 20260506213537 | 7 | 0.0 | 0.0 | 0.00 | 0.00 | 0.00 | 84 | 1013.9 | |
| 20260506212617 | 7 | 0.0 | 0.0 | 0.00 | 0.00 | 0.00 | 84 | 1013.9 | |
| 20260506211552 | 7 | 0.0 | 0.0 | 0.00 | 0.00 | 0.00 | 82 | 1013.7 | |
| 20260506210556 | 8 | 0.0 | 0.0 | 0.00 | 0.00 | 0.00 | 81 | 1013.6 | |
| 20260506205520 | 8 | 0.0 | 0.0 | 0.00 | 0.00 | 0.00 | 81 | 1013.6 | |
| 20260506204609 | 8 | 0.0 | 0.0 | 0.00 | 0.00 | 0.00 | 78 | 1013.5 | |
| 20260506203544 | 8 | 0.0 | 0.0 | 0.00 | 0.00 | 0.00 | 75 | 1013.4 | |
| 20260506202529 | 9 | 0.0 | 0.0 | 0.00 | 0.00 | 0.00 | 74 | 1013.3 | |
| 20260506201655 | 10 | 0.0 | 0.0 | 0.00 | 0.00 | 0.00 | 72 | 1013.2 | |
| 20260506200553 | 10 | 0.0 | 0.0 | 0.00 | 0.00 | 0.00 | 69 | 1013.2 | |
| 20260506195534 | 11 | 0.0 | 0.0 | 0.00 | 0.00 | 0.00 | 67 | 1013.2 | |
| 20260506194617 | 11 | 0.0 | 3.2 | 0.00 | 0.00 | 0.00 | 66 | 1013.1 | |
| 20260506193637 | 11 | 68 | 0.0 | 1.6 | 0.00 | 0.00 | 0.00 | 65 | 1013.0 |
| 20260506192537 | 11 | 115 | 1.6 | 3.2 | 0.00 | 0.00 | 0.00 | 64 | 1012.9 |
| 20260506191518 | 12 | 75 | 1.6 | 4.8 | 0.00 | 0.00 | 0.00 | 63 | 1012.8 |
| 20260506190624 | 12 | 105 | 1.6 | 9.7 | 0.00 | 0.00 | 0.00 | 62 | 1012.7 |
| 20260506185545 | 12 | 91 | 3.2 | 9.7 | 0.00 | 0.00 | 0.00 | 61 | 1012.6 |
| 20260506184533 | 12 | 58 | 1.6 | 4.8 | 0.00 | 0.00 | 0.00 | 63 | 1012.4 |
| 20260506183519 | 12 | 169 | 0.0 | 3.2 | 0.00 | 0.00 | 0.00 | 62 | 1012.2 |
| 20260506182555 | 12 | 50 | 0.0 | 3.2 | 0.00 | 0.00 | 0.00 | 62 | 1012.2 |
| 20260506181536 | 12 | 170 | 1.6 | 3.2 | 0.00 | 0.00 | 0.00 | 62 | 1012.0 |
| 20260506180521 | 13 | 71 | 1.6 | 6.4 | 0.00 | 0.00 | 0.00 | 62 | 1011.8 |
| 20260506175606 | 13 | 65 | 1.6 | 6.4 | 0.00 | 0.00 | 0.00 | 63 | 1011.7 |
| 20260506174604 | 13 | 96 | 1.6 | 3.2 | 0.00 | 0.00 | 0.00 | 65 | 1011.5 |
| 20260506173526 | 13 | 149 | 0.0 | 3.2 | 0.00 | 0.00 | 0.00 | 65 | 1011.2 |
| 20260506172608 | 13 | 21 | 1.6 | 3.2 | 0.00 | 0.00 | 0.00 | 63 | 1011.2 |
| 20260506171601 | 13 | 87 | 1.6 | 4.8 | 0.00 | 0.00 | 0.00 | 64 | 1011.1 |
| 20260506170522 | 13 | 322 | 3.2 | 12.9 | 0.00 | 0.00 | 0.00 | 69 | 1011.1 |
| 20260506165605 | 13 | 338 | 8.0 | 17.7 | 0.00 | 0.00 | 0.00 | 68 | 1011.0 |
| 20260506164612 | 14 | 341 | 11.3 | 17.7 | 0.00 | 0.00 | 0.00 | 66 | 1011.0 |
| 20260506163554 | 13 | 327 | 8.0 | 12.9 | 0.00 | 0.00 | 0.00 | 68 | 1010.8 |
| 20260506162616 | 13 | 321 | 6.4 | 12.9 | 0.00 | 0.00 | 0.00 | 69 | 1011.0 |
| 20260506161638 | 13 | 336 | 8.0 | 12.9 | 0.00 | 0.00 | 0.00 | 70 | 1011.0 |
| 20260506160533 | 13 | 328 | 6.4 | 12.9 | 0.00 | 0.00 | 0.00 | 70 | 1011.0 |
| 20260506155615 | 13 | 330 | 6.4 | 11.3 | 0.00 | 0.00 | 0.00 | 68 | 1011.0 |
| 20260506154555 | 13 | 319 | 3.2 | 4.8 | 0.00 | 0.00 | 0.00 | 64 | 1011.1 |
| 20260506153540 | 13 | 331 | 1.6 | 6.4 | 0.00 | 0.00 | 0.00 | 63 | 1010.9 |
| 20260506152523 | 13 | 96 | 1.6 | 11.3 | 0.00 | 0.00 | 0.00 | 62 | 1011.0 |
| 20260506151607 | 13 | 172 | 1.6 | 4.8 | 0.00 | 0.00 | 0.00 | 63 | 1011.0 |
| 20260506150539 | 13 | 60 | 3.2 | 16.1 | 0.00 | 0.00 | 0.00 | 68 | 1010.9 |
| 20260506145518 | 13 | 305 | 3.2 | 11.3 | 0.00 | 0.00 | 0.00 | 70 | 1010.9 |
| 20260506144602 | 13 | 325 | 4.8 | 11.3 | 0.00 | 0.00 | 0.00 | 72 | 1010.8 |
| 20260506143606 | 13 | 331 | 4.8 | 12.9 | 0.00 | 0.00 | 0.00 | 73 | 1010.9 |
| 20260506142522 | 13 | 356 | 8.0 | 16.1 | 0.00 | 0.00 | 0.00 | 74 | 1010.9 |
| 20260506141605 | 13 | 345 | 6.4 | 12.9 | 0.00 | 0.00 | 0.00 | 74 | 1010.9 |
| 20260506140546 | 13 | 3 | 4.8 | 12.9 | 0.00 | 0.00 | 0.00 | 74 | 1010.8 |
| 20260506135548 | 13 | 332 | 8.0 | 20.9 | 0.00 | 0.00 | 0.00 | 74 | 1011.0 |
| 20260506134607 | 13 | 338 | 4.8 | 9.7 | 0.00 | 0.00 | 0.00 | 73 | 1010.9 |
| 20260506133546 | 14 | 337 | 9.7 | 17.7 | 0.00 | 0.00 | 0.00 | 74 | 1010.9 |
| 20260506132530 | 14 | 332 | 11.3 | 17.7 | 0.00 | 0.00 | 0.00 | 73 | 1010.8 |
| 20260506131613 | 14 | 343 | 14.5 | 25.7 | 0.00 | 0.00 | 0.00 | 71 | 1010.8 |
| 20260506130551 | 14 | 346 | 11.3 | 20.9 | 0.00 | 0.00 | 0.00 | 71 | 1010.7 |
| 20260506125536 | 14 | 344 | 17.7 | 25.7 | 0.00 | 0.00 | 0.00 | 70 | 1010.6 |
| 20260506124611 | 15 | 340 | 9.7 | 20.9 | 0.00 | 0.00 | 0.00 | 68 | 1010.5 |
| 20260506123549 | 14 | 321 | 14.5 | 24.1 | 0.00 | 0.00 | 0.00 | 71 | 1010.5 |
| 20260506122537 | 14 | 325 | 8.0 | 22.5 | 0.00 | 0.00 | 0.00 | 71 | 1010.6 |
| 20260506121613 | 14 | 323 | 12.9 | 20.9 | 0.00 | 0.00 | 0.00 | 70 | 1010.5 |
| 20260506120549 | 14 | 334 | 9.7 | 20.9 | 0.00 | 0.00 | 0.00 | 71 | 1010.5 |
| 20260506115600 | 13 | 341 | 6.4 | 11.3 | 0.00 | 0.00 | 0.00 | 75 | 1010.6 |
| 20260506114540 | 12 | 339 | 6.4 | 12.9 | 0.00 | 0.00 | 0.00 | 76 | 1010.7 |
| 20260506113600 | 13 | 329 | 4.8 | 12.9 | 0.00 | 0.00 | 0.00 | 74 | 1010.7 |
| 20260506112544 | 13 | 282 | 1.6 | 11.3 | 0.00 | 0.00 | 0.00 | 73 | 1010.7 |
| 20260506111522 | 13 | 339 | 3.2 | 9.7 | 0.00 | 0.00 | 0.00 | 73 | 1010.6 |
| 20260506110629 | 13 | 348 | 8.0 | 12.9 | 0.00 | 0.00 | 0.00 | 73 | 1010.6 |
| 20260506105608 | 13 | 318 | 6.4 | 12.9 | 0.00 | 0.00 | 0.00 | 73 | 1010.6 |
| 20260506104530 | 13 | 338 | 6.4 | 12.9 | 0.00 | 0.00 | 0.00 | 75 | 1010.6 |
| 20260506103520 | 13 | 323 | 8.0 | 14.5 | 0.00 | 0.00 | 0.00 | 75 | 1010.7 |
| 20260506102600 | 13 | 348 | 9.7 | 16.1 | 0.00 | 0.00 | 0.00 | 75 | 1010.7 |
| 20260506101545 | 12 | 338 | 4.8 | 14.5 | 0.00 | 0.00 | 0.00 | 77 | 1010.6 |
| 20260506100526 | 12 | 343 | 8.0 | 17.7 | 0.00 | 0.00 | 0.00 | 77 | 1010.6 |
| 20260506095608 | 12 | 335 | 4.8 | 14.5 | 0.00 | 0.00 | 0.00 | 78 | 1010.6 |
| 20260506094544 | 12 | 336 | 6.4 | 12.9 | 0.00 | 0.00 | 0.00 | 81 | 1010.6 |
| 20260506093525 | 12 | 355 | 6.4 | 16.1 | 0.00 | 0.00 | 0.00 | 83 | 1010.5 |
| 20260506092606 | 11 | 339 | 8.0 | 14.5 | 0.00 | 0.00 | 0.00 | 85 | 1010.6 |
| 20260506091552 | 11 | 343 | 9.7 | 17.7 | 0.00 | 0.00 | 0.00 | 85 | 1010.5 |
| 20260506090536 | 11 | 334 | 6.4 | 12.9 | 0.00 | 0.00 | 0.00 | 87 | 1010.5 |
| 20260506085618 | 11 | 337 | 6.4 | 14.5 | 0.00 | 0.00 | 0.00 | 88 | 1010.4 |
| 20260506084555 | 11 | 338 | 11.3 | 14.5 | 0.00 | 0.00 | 0.00 | 89 | 1010.4 |
| 20260506083533 | 10 | 336 | 11.3 | 20.9 | 0.00 | 0.00 | 0.00 | 90 | 1010.4 |
| 20260506082517 | 10 | 330 | 4.8 | 11.3 | 0.00 | 0.00 | 0.00 | 92 | 1010.3 |
| 20260506081557 | 10 | 318 | 6.4 | 11.3 | 0.00 | 0.00 | 0.00 | 92 | 1010.4 |
| 20260506080539 | 10 | 330 | 8.0 | 14.5 | 0.00 | 0.00 | 0.00 | 92 | 1010.3 |
| 20260506072516 | 9 | 312 | 1.6 | 9.7 | 0.00 | 0.00 | 0.00 | 92 | 1010.1 |
| 20260506071602 | 9 | 309 | 3.2 | 12.9 | 0.00 | 0.00 | 0.00 | 92 | 1010.2 |
| 20260506070545 | 9 | 326 | 4.8 | 12.9 | 0.00 | 0.00 | 0.00 | 91 | 1010.1 |
| 20260506061517 | 10 | 343 | 6.4 | 17.7 | 0.00 | 0.00 | 0.00 | 82 | 1009.8 |
| 20260506060615 | 10 | 28 | 6.4 | 14.5 | 0.00 | 0.00 | 0.00 | 80 | 1009.8 |
| 20260506050609 | 10 | 334 | 4.8 | 14.5 | 0.00 | 0.00 | 0.00 | 78 | 1009.6 |
| 20260506044539 | 10 | 340 | 4.8 | 11.3 | 0.00 | 0.00 | 0.00 | 79 | 1009.7 |
| 20260506043527 | 10 | 343 | 8.0 | 14.5 | 0.00 | 0.00 | 0.00 | 80 | 1009.6 |
| 20260506042609 | 9 | 333 | 4.8 | 11.3 | 0.00 | 0.00 | 0.00 | 81 | 1009.6 |
| 20260506041552 | 9 | 328 | 4.8 | 12.9 | 0.00 | 0.00 | 0.00 | 81 | 1009.6 |
| 20260506040537 | 9 | 3 | 4.8 | 11.3 | 0.00 | 0.00 | 0.00 | 81 | 1009.6 |
| 20260506035525 | 9 | 340 | 6.4 | 12.9 | 0.00 | 0.00 | 0.00 | 81 | 1009.8 |
| 20260506034609 | 9 | 335 | 8.0 | 12.9 | 0.00 | 0.00 | 0.00 | 81 | 1009.8 |
| 20260506033608 | 9 | 339 | 8.0 | 11.3 | 0.00 | 0.00 | 0.00 | 81 | 1009.8 |
| 20260506032609 | 9 | 339 | 4.8 | 11.3 | 0.00 | 0.00 | 0.00 | 80 | 1009.8 |
| 20260506031616 | 8 | 354 | 4.8 | 14.5 | 0.00 | 0.00 | 0.00 | 81 | 1009.8 |
| 20260506030559 | 8 | 330 | 4.8 | 9.7 | 0.00 | 0.00 | 0.00 | 81 | 1009.8 |
| 20260506025543 | 8 | 328 | 3.2 | 9.7 | 0.00 | 0.00 | 0.00 | 81 | 1010.2 |
| 20260506024541 | 8 | 338 | 6.4 | 11.3 | 0.00 | 0.00 | 0.00 | 82 | 1010.0 |
| 20260506023607 | 8 | 338 | 4.8 | 12.9 | 0.00 | 0.00 | 0.00 | 82 | 1010.0 |
| 20260506022546 | 8 | 339 | 4.8 | 9.7 | 0.00 | 0.00 | 0.00 | 82 | 1010.1 |
| 20260506021526 | 8 | 327 | 3.2 | 11.3 | 0.00 | 0.00 | 0.00 | 82 | 1010.2 |
| 20260506020605 | 8 | 345 | 1.6 | 11.3 | 0.00 | 0.00 | 0.00 | 82 | 1010.1 |
| 20260506015553 | 8 | 344 | 4.8 | 11.3 | 0.00 | 0.00 | 0.00 | 82 | 1010.2 |
| 20260506014528 | 8 | 308 | 3.2 | 9.7 | 0.00 | 0.00 | 0.00 | 82 | 1010.3 |
| 20260506013605 | 8 | 337 | 4.8 | 9.7 | 0.00 | 0.00 | 0.00 | 82 | 1010.2 |
| 20260506012544 | 8 | 347 | 4.8 | 9.7 | 0.00 | 0.00 | 0.00 | 83 | 1010.3 |
| 20260506011527 | 8 | 335 | 6.4 | 11.3 | 0.00 | 0.00 | 0.00 | 82 | 1010.3 |
| 20260506010611 | 8 | 329 | 3.2 | 11.3 | 0.00 | 0.00 | 0.00 | 82 | 1010.3 |
| 20260506005557 | 8 | 344 | 3.2 | 9.7 | 0.00 | 0.00 | 0.00 | 81 | 1010.4 |
| 20260506004543 | 8 | 313 | 1.6 | 6.4 | 0.00 | 0.00 | 0.00 | 81 | 1010.3 |
| 20260506003602 | 9 | 325 | 3.2 | 9.7 | 0.00 | 0.00 | 0.00 | 81 | 1010.5 |
| 20260506002605 | 9 | 331 | 4.8 | 11.3 | 0.00 | 0.00 | 0.00 | 81 | 1010.6 |
| 20260506001550 | 9 | 337 | 4.8 | 11.3 | 0.00 | 0.00 | 0.00 | 82 | 1010.7 |
| 20260506000532 | 9 | 309 | 3.2 | 6.4 | 0.00 | 0.00 | 0.00 | 82 | 1010.7 |
| 20260505235520 | 9 | 329 | 4.8 | 9.7 | 0.00 | 0.00 | 0.00 | 82 | 1010.7 |
| 20260505234607 | 10 | 328 | 4.8 | 6.4 | 0.00 | 0.00 | 0.00 | 82 | 1010.7 |
| 20260505233540 | 10 | 283 | 3.2 | 11.3 | 0.00 | 0.00 | 0.00 | 82 | 1010.7 |
| 20260505232524 | 10 | 324 | 3.2 | 12.9 | 0.00 | 0.00 | 0.00 | 82 | 1010.8 |
| 20260505231603 | 10 | 261 | 3.2 | 6.4 | 0.00 | 0.00 | 0.00 | 82 | 1010.8 |
| 20260505230611 | 10 | 355 | 3.2 | 4.8 | 0.00 | 0.00 | 0.00 | 82 | 1010.8 |
| 20260505225535 | 10 | 322 | 1.6 | 4.8 | 0.00 | 0.00 | 0.00 | 81 | 1010.9 |
| 20260505224631 | 10 | 270 | 0.0 | 11.3 | 0.00 | 0.00 | 0.00 | 80 | 1010.9 |
| 20260505223659 | 10 | 285 | 0.0 | 4.8 | 0.00 | 0.00 | 0.00 | 80 | 1010.9 |
| 20260505222543 | 10 | 210 | 0.0 | 3.2 | 0.00 | 0.00 | 0.00 | 79 | 1010.9 |
| 20260505221547 | 10 | 298 | 0.0 | 3.2 | 0.00 | 0.00 | 0.00 | 78 | 1010.9 |
| 20260505220606 | 10 | 94 | 0.0 | 6.4 | 0.00 | 0.00 | 0.00 | 78 | 1010.9 |
| 20260505215548 | 10 | 92 | 1.6 | 4.8 | 0.00 | 0.00 | 0.00 | 79 | 1010.9 |
| 20260505214527 | 10 | 219 | 0.0 | 6.4 | 0.00 | 0.00 | 0.00 | 79 | 1011.0 |